PST,Max TemperatureF,Mean TemperatureF,Min TemperatureF,Max Dew PointF,MeanDew PointF,Min DewpointF,Max Humidity, Mean Humidity, Min Humidity, Max Sea Level PressureIn, Mean Sea Level PressureIn, Min Sea Level PressureIn, Max VisibilityMiles, Mean VisibilityMiles, Min VisibilityMiles, Max Wind SpeedMPH, Mean Wind SpeedMPH, Max Gust SpeedMPH,PrecipitationIn, CloudCover, Events, WindDirDegrees
2014-1-1,67,53,38,49,36,29,83,60,36,30.23,30.18,30.15,10,10,7,9,3,12,0.00,0,,90
2014-1-2,68,55,41,42,31,22,58,41,24,30.17,30.12,30.08,10,10,10,8,3,9,0.00,0,,104
2014-1-3,62,54,45,46,35,29,71,54,36,30.08,30.04,29.99,10,10,9,8,2,9,0.00,0,,96
2014-1-4,58,51,44,49,44,37,93,74,55,30.11,30.04,29.98,10,8,2,7,3,18,0.00,3,,76
2014-1-5,69,55,40,50,39,33,96,64,32,30.24,30.17,30.10,10,8,0,8,3,9,0.00,1,Fog,116
2014-1-6,65,54,43,51,41,27,93,68,42,30.30,30.23,30.18,10,9,4,8,1,9,0.00,1,,86
2014-1-7,64,54,44,52,46,28,100,63,26,30.25,30.20,30.16,10,8,0,12,3,16,0.00,4,Fog,253
2014-1-8,58,53,48,52,47,43,93,80,67,30.28,30.23,30.16,10,10,10,12,4,16,0.00,6,,259
2014-1-9,57,51,44,49,45,40,93,83,72,30.31,30.26,30.21,10,10,9,14,5,18,0.00,3,,145
2014-1-10,59,50,41,51,46,36,100,81,62,30.33,30.24,30.18,10,7,0,10,4,10,0.00,3,Fog,27
2014-1-11,63,53,43,52,47,41,93,71,48,30.33,30.26,30.19,10,9,2,16,3,28,T,4,Rain,179
2014-1-12,58,51,43,48,43,35,93,74,55,30.39,30.34,30.27,10,10,6,12,4,13,0.00,2,,124
2014-1-13,76,60,43,34,32,28,65,42,18,30.44,30.39,30.36,10,10,10,14,6,15,0.00,0,,67
2014-1-14,78,60,42,40,29,24,53,35,16,30.45,30.38,30.32,10,10,10,13,4,17,0.00,0,,93
2014-1-15,83,63,42,43,27,21,49,30,11,30.32,30.26,30.20,10,10,10,9,2,15,0.00,0,,110
2014-1-16,77,62,47,34,22,16,36,24,11,30.23,30.17,30.13,10,10,10,10,3,13,0.00,0,,93
2014-1-17,84,67,49,44,21,10,38,22,6,30.18,30.15,30.12,10,10,10,9,3,10,0.00,0,,87
2014-1-18,75,60,45,41,26,13,51,34,16,30.17,30.12,30.09,10,10,10,13,3,17,0.00,0,,100
2014-1-19,71,58,44,50,29,17,77,47,17,30.16,30.11,30.07,10,10,7,8,2,9,0.00,0,,344
2014-1-20,66,52,38,49,34,21,82,52,22,30.27,30.18,29.90,10,9,1,7,2,8,0.00,1,,70
2014-1-21,63,51,38,47,34,25,93,64,34,30.26,30.22,30.17,10,9,0,10,3,12,0.00,0,Fog,96
2014-1-22,70,57,44,48,33,19,71,47,22,30.17,30.07,29.97,10,10,8,15,4,16,0.00,0,,90
2014-1-23,65,52,39,49,42,35,100,72,43,30.06,29.94,29.88,10,7,0,16,5,18,0.00,4,Fog,109
2014-1-24,63,56,48,52,48,44,93,80,67,30.31,30.18,30.02,10,8,6,8,3,10,0.00,4,,92
2014-1-25,69,59,48,50,41,29,86,57,27,30.29,30.22,30.17,10,10,7,10,4,12,0.00,1,,82
2014-1-26,69,59,49,51,42,29,89,61,33,30.17,30.13,30.08,10,10,8,14,4,16,0.00,2,,56
2014-1-27,58,53,47,50,47,44,93,83,72,30.25,30.18,30.10,10,9,2,9,4,13,0.00,4,,131
2014-1-28,64,56,48,57,51,46,96,76,56,30.30,30.24,30.19,10,6,0,10,3,13,0.00,6,Fog,195
2014-1-29,66,61,56,57,56,52,93,86,78,30.26,30.12,29.99,10,8,0,8,2,12,0.00,8,Fog,268
2014-1-30,59,56,52,52,48,45,86,77,67,30.00,29.95,29.89,10,10,4,15,8,20,0.07,7,Rain,228
2014-1-31,58,53,47,47,45,42,93,75,57,30.14,30.07,29.95,10,10,10,18,8,25,T,4,Rain,258